******** Week 365 almanac for PRN-1 ******** ID: 1 Health: 0 Eccentricity: 0.001682758331 Time of Applicability(s): 147456 Orbital Inclination(rad): 0.9577756592 Rate of Right Ascen(r/s): -8.137481816e-09 SQRT(A) (m 1/2): 5153.566895 Right Ascen at Week(rad): 2.51083481 Argument of Perigee(rad): 0.152417994 Mean Anom(rad): 1.845967239 Af0(s): 0.0002396684326 Af1(s/s): -7.275958e-12 week: 365 ******** Week 365 almanac for PRN-2 ******** ID: 2 Health: 0 Eccentricity: 0.01683139801 Time of Applicability(s): 147456 Orbital Inclination(rad): 0.9628689548 Rate of Right Ascen(r/s): -8.080336578e-09 SQRT(A) (m 1/2): 5153.527344 Right Ascen at Week(rad): 2.348444817 Argument of Perigee(rad): -0.7913086336 Mean Anom(rad): -2.9191014 Af0(s): 5.803292236e-05 Af1(s/s): 7.275958e-12 week: 365 ******** Week 365 almanac for PRN-3 ******** ID: 3 Health: 0 Eccentricity: 0.006646633148 Time of Applicability(s): 147456 Orbital Inclination(rad): 0.9940279395 Rate of Right Ascen(r/s): -7.463168014e-09 SQRT(A) (m 1/2): 5153.571777 Right Ascen at Week(rad): -2.784451892 Argument of Perigee(rad): 1.206583748 Mean Anom(rad): -0.2237252557 Af0(s): 0.0004054767822 Af1(s/s): -1.455192e-11 week: 365 ******** Week 365 almanac for PRN-4 ******** ID: 4 Health: 0 Eccentricity: 0.003731250763 Time of Applicability(s): 147456 Orbital Inclination(rad): 0.9706527088 Rate of Right Ascen(r/s): -7.680319916e-09 SQRT(A) (m 1/2): 5153.66748 Right Ascen at Week(rad): -1.714698032 Argument of Perigee(rad): -2.869742497 Mean Anom(rad): 2.729937151 Af0(s): 4.14520874e-05 Af1(s/s): 0 week: 365 ******** Week 365 almanac for PRN-5 ******** ID: 5 Health: 0 Eccentricity: 0.005472660065 Time of Applicability(s): 147456 Orbital Inclination(rad): 0.9805456865 Rate of Right Ascen(r/s): -7.600316584e-09 SQRT(A) (m 1/2): 5153.683105 Right Ascen at Week(rad): -2.844622813 Argument of Perigee(rad): 1.419628063 Mean Anom(rad): -2.882602694 Af0(s): -0.0001831428589 Af1(s/s): 0 week: 365 ******** Week 365 almanac for PRN-6 ******** ID: 6 Health: 0 Eccentricity: 0.003801822662 Time of Applicability(s): 147456 Orbital Inclination(rad): 0.9865857358 Rate of Right Ascen(r/s): -7.874613723e-09 SQRT(A) (m 1/2): 5153.610352 Right Ascen at Week(rad): 2.462339146 Argument of Perigee(rad): -0.5362053066 Mean Anom(rad): 1.063238562 Af0(s): -0.0004831052368 Af1(s/s): 0 week: 365 ******** Week 365 almanac for PRN-7 ******** ID: 7 Health: 0 Eccentricity: 0.02069377899 Time of Applicability(s): 147456 Orbital Inclination(rad): 0.9509686194 Rate of Right Ascen(r/s): -7.931758961e-09 SQRT(A) (m 1/2): 5153.55127 Right Ascen at Week(rad): -0.7059300193 Argument of Perigee(rad): -1.98074745 Mean Anom(rad): 0.2274568437 Af0(s): -0.0001341540283 Af1(s/s): -3.637979e-12 week: 365 ******** Week 365 almanac for PRN-8 ******** ID: 8 Health: 0 Eccentricity: 0.01160001755 Time of Applicability(s): 147456 Orbital Inclination(rad): 0.9429152203 Rate of Right Ascen(r/s): -8.091765626e-09 SQRT(A) (m 1/2): 5153.650879 Right Ascen at Week(rad): 1.340176397 Argument of Perigee(rad): 0.5341005771 Mean Anom(rad): 3.039032782 Af0(s): 0.0003685467407 Af1(s/s): -7.275958e-12 week: 365 ******** Week 365 almanac for PRN-9 ******** ID: 9 Health: 0 Eccentricity: 0.003343105316 Time of Applicability(s): 147456 Orbital Inclination(rad): 0.9648823045 Rate of Right Ascen(r/s): -7.726036106e-09 SQRT(A) (m 1/2): 5153.706543 Right Ascen at Week(rad): -1.779199377 Argument of Perigee(rad): 2.057969301 Mean Anom(rad): -2.650082141 Af0(s): 0.0006021857788 Af1(s/s): -3.637979e-12 week: 365 ******** Week 365 almanac for PRN-10 ******** ID: 10 Health: 0 Eccentricity: 0.0109333992 Time of Applicability(s): 147456 Orbital Inclination(rad): 0.9935545626 Rate of Right Ascen(r/s): -7.463168014e-09 SQRT(A) (m 1/2): 5153.612793 Right Ascen at Week(rad): -2.786959965 Argument of Perigee(rad): -2.256839649 Mean Anom(rad): -1.216672593 Af0(s): -0.0004665244019 Af1(s/s): 0 week: 365 ******** Week 365 almanac for PRN-11 ******** ID: 11 Health: 0 Eccentricity: 0.00220823288 Time of Applicability(s): 147456 Orbital Inclination(rad): 0.9634741581 Rate of Right Ascen(r/s): -8.103194673e-09 SQRT(A) (m 1/2): 5153.540527 Right Ascen at Week(rad): 2.480360049 Argument of Perigee(rad): -2.323828845 Mean Anom(rad): 2.216511609 Af0(s): -0.0003022234009 Af1(s/s): 1.455192e-11 week: 365 ******** Week 365 almanac for PRN-12 ******** ID: 12 Health: 0 Eccentricity: 0.00892829895 Time of Applicability(s): 147456 Orbital Inclination(rad): 0.959417498 Rate of Right Ascen(r/s): -7.657461821e-09 SQRT(A) (m 1/2): 5153.70752 Right Ascen at Week(rad): 0.4117240389 Argument of Perigee(rad): 1.570193371 Mean Anom(rad): -0.4676390618 Af0(s): -0.0004808442139 Af1(s/s): 0 week: 365 ******** Week 365 almanac for PRN-13 ******** ID: 13 Health: 0 Eccentricity: 0.0100903511 Time of Applicability(s): 147456 Orbital Inclination(rad): 0.9761834286 Rate of Right Ascen(r/s): -7.680319916e-09 SQRT(A) (m 1/2): 5153.620117 Right Ascen at Week(rad): -1.603586665 Argument of Perigee(rad): 0.9942191632 Mean Anom(rad): 2.80787431 Af0(s): 0.0005381234619 Af1(s/s): 0 week: 365 ******** Week 365 almanac for PRN-14 ******** ID: 14 Health: 0 Eccentricity: 0.006908416748 Time of Applicability(s): 147456 Orbital Inclination(rad): 0.9427654175 Rate of Right Ascen(r/s): -7.840326581e-09 SQRT(A) (m 1/2): 5153.605469 Right Ascen at Week(rad): 0.3565572811 Argument of Perigee(rad): -2.732287182 Mean Anom(rad): -0.6052737653 Af0(s): 0.0005863586182 Af1(s/s): 0 week: 365 ******** Week 365 almanac for PRN-15 ******** ID: 15 Health: 0 Eccentricity: 0.0166387558 Time of Applicability(s): 147456 Orbital Inclination(rad): 0.9428972439 Rate of Right Ascen(r/s): -7.954617056e-09 SQRT(A) (m 1/2): 5153.65625 Right Ascen at Week(rad): -1.92412386 Argument of Perigee(rad): 1.508234928 Mean Anom(rad): 2.043379631 Af0(s): 0.0003165432129 Af1(s/s): 3.637979e-12 week: 365 ******** Week 365 almanac for PRN-16 ******** ID: 16 Health: 0 Eccentricity: 0.01501512527 Time of Applicability(s): 147456 Orbital Inclination(rad): 0.9585246732 Rate of Right Ascen(r/s): -7.657461821e-09 SQRT(A) (m 1/2): 5153.617676 Right Ascen at Week(rad): 0.4286356528 Argument of Perigee(rad): 0.9318704841 Mean Anom(rad): -2.201889731 Af0(s): 0.0001899259277 Af1(s/s): 7.275958e-12 week: 365 ******** Week 365 almanac for PRN-17 ******** ID: 17 Health: 0 Eccentricity: 0.01261711121 Time of Applicability(s): 147456 Orbital Inclination(rad): 0.9585306653 Rate of Right Ascen(r/s): -7.966046103e-09 SQRT(A) (m 1/2): 5153.564453 Right Ascen at Week(rad): 1.445461558 Argument of Perigee(rad): -1.115159467 Mean Anom(rad): 2.994250729 Af0(s): -8.441152344e-05 Af1(s/s): -1.091394e-11 week: 365 ******** Week 365 almanac for PRN-18 ******** ID: 18 Health: 0 Eccentricity: 0.005823612213 Time of Applicability(s): 147456 Orbital Inclination(rad): 0.9715455336 Rate of Right Ascen(r/s): -8.011762293e-09 SQRT(A) (m 1/2): 5153.583496 Right Ascen at Week(rad): 2.4568088 Argument of Perigee(rad): -2.871474218 Mean Anom(rad): 1.011939712 Af0(s): -0.0003029770752 Af1(s/s): 1.091394e-11 week: 365 ******** Week 365 almanac for PRN-19 ******** ID: 19 Health: 0 Eccentricity: 0.01128101349 Time of Applicability(s): 147456 Orbital Inclination(rad): 0.9576797854 Rate of Right Ascen(r/s): -7.977475151e-09 SQRT(A) (m 1/2): 5153.680176 Right Ascen at Week(rad): 1.489345543 Argument of Perigee(rad): 2.947764295 Mean Anom(rad): -1.513737935 Af0(s): 0.000550182251 Af1(s/s): 0 week: 365 ******** Week 365 almanac for PRN-20 ******** ID: 20 Health: 0 Eccentricity: 0.002231121063 Time of Applicability(s): 147456 Orbital Inclination(rad): 0.9602743701 Rate of Right Ascen(r/s): -7.817468486e-09 SQRT(A) (m 1/2): 5153.706543 Right Ascen at Week(rad): -1.773760412 Argument of Perigee(rad): -1.937966763 Mean Anom(rad): -0.5359510163 Af0(s): 7.461375732e-05 Af1(s/s): 2.182787e-11 week: 365 ******** Week 365 almanac for PRN-21 ******** ID: 21 Health: 0 Eccentricity: 0.0008206367493 Time of Applicability(s): 147456 Orbital Inclination(rad): 0.9634262212 Rate of Right Ascen(r/s): -7.760323248e-09 SQRT(A) (m 1/2): 5153.739258 Right Ascen at Week(rad): -2.779257479 Argument of Perigee(rad): -0.2192551398 Mean Anom(rad): -0.8616388065 Af0(s): 0.000326340979 Af1(s/s): 0 week: 365 ******** Week 365 almanac for PRN-22 ******** ID: 22 Health: 0 Eccentricity: 0.01202964783 Time of Applicability(s): 147456 Orbital Inclination(rad): 0.9579733989 Rate of Right Ascen(r/s): -7.680319916e-09 SQRT(A) (m 1/2): 5153.575684 Right Ascen at Week(rad): 0.4319934828 Argument of Perigee(rad): -0.9926657081 Mean Anom(rad): -2.641534767 Af0(s): -1.808818359e-05 Af1(s/s): 7.275958e-12 week: 365 ******** Week 365 almanac for PRN-23 ******** ID: 23 Health: 0 Eccentricity: 0.006093978882 Time of Applicability(s): 147456 Orbital Inclination(rad): 0.9885331724 Rate of Right Ascen(r/s): -7.520313251e-09 SQRT(A) (m 1/2): 5153.669922 Right Ascen at Week(rad): -2.81919753 Argument of Perigee(rad): -2.740186285 Mean Anom(rad): -0.1463955464 Af0(s): 0.0005004397461 Af1(s/s): 3.637979e-12 week: 365 ******** Week 365 almanac for PRN-24 ******** ID: 24 Health: 0 Eccentricity: 0.01797914505 Time of Applicability(s): 147456 Orbital Inclination(rad): 0.9349157502 Rate of Right Ascen(r/s): -8.148910863e-09 SQRT(A) (m 1/2): 5153.579102 Right Ascen at Week(rad): -0.8150624909 Argument of Perigee(rad): 1.14026155 Mean Anom(rad): 1.209386184 Af0(s): -3.843739014e-05 Af1(s/s): 1.818989e-11 week: 365 ******** Week 365 almanac for PRN-25 ******** ID: 25 Health: 0 Eccentricity: 0.01289510727 Time of Applicability(s): 147456 Orbital Inclination(rad): 0.947804784 Rate of Right Ascen(r/s): -7.794610391e-09 SQRT(A) (m 1/2): 5153.659668 Right Ascen at Week(rad): 0.3175490035 Argument of Perigee(rad): 1.159338563 Mean Anom(rad): -0.5821000194 Af0(s): 0.0003414144653 Af1(s/s): -3.637979e-12 week: 365 ******** Week 365 almanac for PRN-26 ******** ID: 26 Health: 0 Eccentricity: 0.01102733612 Time of Applicability(s): 147456 Orbital Inclination(rad): 0.9285760952 Rate of Right Ascen(r/s): -7.988904198e-09 SQRT(A) (m 1/2): 5153.680176 Right Ascen at Week(rad): 0.2424022957 Argument of Perigee(rad): 0.711799668 Mean Anom(rad): -1.404493111 Af0(s): -0.0002765984741 Af1(s/s): -3.637979e-12 week: 365 ******** Week 365 almanac for PRN-27 ******** ID: 27 Health: 0 Eccentricity: 0.01437807083 Time of Applicability(s): 147456 Orbital Inclination(rad): 0.9519992628 Rate of Right Ascen(r/s): -8.023191341e-09 SQRT(A) (m 1/2): 5153.619629 Right Ascen at Week(rad): 1.372521446 Argument of Perigee(rad): 0.8907241459 Mean Anom(rad): -3.136487375 Af0(s): -7.612110596e-05 Af1(s/s): -1.455192e-11 week: 365 ******** Week 365 almanac for PRN-28 ******** ID: 28 Health: 0 Eccentricity: 0.0003843307495 Time of Applicability(s): 147456 Orbital Inclination(rad): 0.9618742641 Rate of Right Ascen(r/s): -7.851755628e-09 SQRT(A) (m 1/2): 5153.503906 Right Ascen at Week(rad): -0.7312841452 Argument of Perigee(rad): -0.3211824707 Mean Anom(rad): 0.8646588312 Af0(s): -0.0004439141724 Af1(s/s): 7.275958e-12 week: 365 ******** Week 365 almanac for PRN-29 ******** ID: 29 Health: 0 Eccentricity: 0.003464698791 Time of Applicability(s): 147456 Orbital Inclination(rad): 0.961179179 Rate of Right Ascen(r/s): -7.943188008e-09 SQRT(A) (m 1/2): 5153.693359 Right Ascen at Week(rad): 1.462292279 Argument of Perigee(rad): 2.753529221 Mean Anom(rad): 2.987012257 Af0(s): -0.0002728301025 Af1(s/s): 7.275958e-12 week: 365 ******** Week 365 almanac for PRN-30 ******** ID: 30 Health: 0 Eccentricity: 0.00817489624 Time of Applicability(s): 147456 Orbital Inclination(rad): 0.9362280228 Rate of Right Ascen(r/s): -8.114623721e-09 SQRT(A) (m 1/2): 5153.675293 Right Ascen at Week(rad): -0.7154350077 Argument of Perigee(rad): -2.295586521 Mean Anom(rad): 0.01459266636 Af0(s): 0.0001409370972 Af1(s/s): 1.455192e-11 week: 365 ******** Week 365 almanac for PRN-31 ******** ID: 31 Health: 0 Eccentricity: 0.01082754135 Time of Applicability(s): 147456 Orbital Inclination(rad): 0.9547376582 Rate of Right Ascen(r/s): -7.920329913e-09 SQRT(A) (m 1/2): 5153.523926 Right Ascen at Week(rad): -0.6815578509 Argument of Perigee(rad): 0.9424203471 Mean Anom(rad): -0.8557429424 Af0(s): -0.0001243562622 Af1(s/s): 3.637979e-12 week: 365 ******** Week 365 almanac for PRN-32 ******** ID: 32 Health: 0 Eccentricity: 0.009393692017 Time of Applicability(s): 147456 Orbital Inclination(rad): 0.9678963371 Rate of Right Ascen(r/s): -7.714607058e-09 SQRT(A) (m 1/2): 5153.694824 Right Ascen at Week(rad): -1.762074669 Argument of Perigee(rad): -1.984866278 Mean Anom(rad): -2.582822176 Af0(s): -9.044091797e-06 Af1(s/s): 1.818989e-11 week: 365